Location: St. Louis
(38.6270°N, 90.1994°W)
Time: 09:25:00
(UTC-06:00)

Vanguard 2 Rocket - Pass Details

Date: 30 November 2021
Orbit: 553 x 3325 km, 32.9° (Epoch: 23 January)

Event Time Altitude Azimuth Distance (km) Brightness Sun altitude
Rises 03:24:01 0° 270° (W) 6,757 - -41.4°
Reaches altitude 10° 03:32:43 10° 247° (WSW) 6,130 - -39.7°
Maximum altitude 03:39:37 13° 226° (SW) 6,014 - -38.4°
Exits shadow 03:43:47 12° 213° (SSW) 6,109 10.8 -37.5°
Drops below altitude 10° 03:46:42 10° 205° (SSW) 6,243 10.9 -37.0°
Sets 03:56:04 0° 181° (S) 6,981 11.4 -35.1°
